TimeEST,TemperatureF,Dew PointF,Humidity,Sea Level PressureIn,VisibilityMPH,Wind Direction,Wind SpeedMPH,Gust SpeedMPH,PrecipitationIn,Events,Conditions,WindDirDegrees,DateUTC
12:52 AM,-7.1,-17.0,62,29.91,10.0,NW,10.4,21.9,N/A,,Clear,310,1998-12-31 05:52:00
1:21 AM,-7.6,-16.6,65,29.82,9.0,NW,11.5,-,N/A,,Mostly Cloudy,320,1998-12-31 06:21:00
1:52 AM,-8.0,-16.1,68,29.94,4.0,NW,11.5,17.3,N/A,,Haze,320,1998-12-31 06:52:00
2:52 AM,-8.0,-17.0,65,29.94,10.0,WNW,9.2,-,N/A,,Scattered Clouds,290,1998-12-31 07:52:00
3:52 AM,-9.0,-17.0,68,29.96,10.0,West,12.7,-,N/A,,Clear,270,1998-12-31 08:52:00
4:52 AM,-9.0,-18.0,65,29.99,8.0,WNW,11.5,19.6,N/A,,Partly Cloudy,290,1998-12-31 09:52:00
5:52 AM,-9.0,-18.9,62,30.03,10.0,Variable,6.9,-,N/A,,Clear,0,1998-12-31 10:52:00
6:52 AM,-9.0,-20.0,59,30.04,10.0,Variable,4.6,-,N/A,,Clear,0,1998-12-31 11:52:00
7:52 AM,-9.0,-18.9,62,30.06,10.0,Calm,Calm,-,N/A,,Clear,0,1998-12-31 12:52:00
8:52 AM,-8.0,-18.0,61,30.07,10.0,SE,4.6,-,N/A,,Clear,140,1998-12-31 13:52:00
9:52 AM,-5.1,-15.0,62,30.09,9.0,SSE,5.8,-,N/A,,Clear,160,1998-12-31 14:52:00
10:52 AM,-0.0,-14.1,52,30.08,10.0,Calm,Calm,-,N/A,,Clear,0,1998-12-31 15:52:00
11:52 AM,1.9,-11.0,55,30.05,10.0,North,3.5,-,N/A,,Partly Cloudy,350,1998-12-31 16:52:00
12:52 PM,3.9,-9.9,53,30.04,10.0,Calm,Calm,-,N/A,,Clear,0,1998-12-31 17:52:00
1:52 PM,5.0,-9.0,52,30.03,10.0,Calm,Calm,-,N/A,,Clear,0,1998-12-31 18:52:00
3:52 PM,6.1,-7.1,55,30.04,10.0,Calm,Calm,-,N/A,,Clear,0,1998-12-31 20:52:00
4:52 PM,-0.0,-6.0,76,30.05,10.0,Calm,Calm,-,N/A,,Clear,0,1998-12-31 21:52:00
5:52 PM,-4.0,-9.0,79,30.05,10.0,Calm,Calm,-,N/A,,Clear,0,1998-12-31 22:52:00
6:52 PM,-4.0,-8.0,83,30.06,10.0,Calm,Calm,-,N/A,,Overcast,0,1998-12-31 23:52:00
7:52 PM,-4.0,-9.0,79,30.05,8.0,Calm,Calm,-,N/A,,Overcast,0,1999-01-01 00:52:00
8:01 PM,-4.0,-9.4,78,29.93,5.0,Calm,Calm,-,0.00,Snow,Light Snow,0,1999-01-01 01:01:00
8:11 PM,-4.0,-9.4,78,29.93,7.0,Calm,Calm,-,0.00,,Overcast,0,1999-01-01 01:11:00
8:45 PM,-4.0,-7.6,85,29.91,8.0,Calm,Calm,-,0.00,,Overcast,0,1999-01-01 01:45:00
8:52 PM,-4.0,-8.0,83,30.02,10.0,Calm,Calm,-,0.00,,Overcast,0,1999-01-01 01:52:00
9:43 PM,-4.0,-7.6,85,29.90,9.0,Calm,Calm,-,N/A,,Overcast,0,1999-01-01 02:43:00
9:52 PM,-4.0,-8.0,83,30.01,7.0,Calm,Calm,-,N/A,,Overcast,0,1999-01-01 02:52:00
10:07 PM,-5.8,-9.4,84,29.89,8.0,Calm,Calm,-,N/A,,Overcast,0,1999-01-01 03:07:00
10:52 PM,-4.0,-8.0,83,29.98,10.0,Calm,Calm,-,N/A,,Overcast,0,1999-01-01 03:52:00
11:52 PM,-2.0,-7.1,79,29.96,4.0,Calm,Calm,-,0.00,Snow,Light Snow,0,1999-01-01 04:52:00